FW3819 Weather Reports


Display with metric or nautical units.
time (UTC)temp
F
wind
direction
speed
MPH
gust
MPH
rain 1hr
in
rain 24hr
in
rain mn
in
humidity
%
barometer
mb
20260507015103 66 341 2.0 9.0 0.00 0.01 0.01 74 1010.6
20260507014603 66 289 2.0 9.0 0.00 0.01 0.01 76 1010.8
20260507014356 67 41 2.0 12.0 0.00 0.01 0.01 77 1010.7
20260507013603 67 11 3.0 16.0 0.00 0.01 0.01 76 1011.0
20260507013101 67 251 3.0 16.0 0.00 0.01 0.01 77 1011.0
20260507012603 67 279 2.0 12.0 0.00 0.01 0.01 78 1010.9
20260507012105 67 242 3.0 12.0 0.00 0.01 0.01 79 1010.9
20260507011604 67 296 3.0 14.0 0.00 0.01 0.01 81 1010.9
20260507011103 67 279 1.0 14.0 0.00 0.01 0.01 82 1010.9
20260507010603 67 178 0.0 3.0 0.00 0.01 0.01 82 1010.7
20260507005602 67 188 1.0 3.0 0.00 0.01 0.01 82 1011.0
20260507005100 67 178 1.0 3.0 0.00 0.01 0.01 83 1010.8
20260507004853 67 117 1.0 3.0 0.00 0.01 0.01 83 1010.7
20260507004354 67 162 0.0 3.0 0.00 0.01 0.01 83 1010.5
20260507003602 67 181 0.0 1.0 0.00 0.01 0.01 84 1010.6
20260507003104 67 234 1.0 3.0 0.00 0.01 0.01 84 1010.6
20260507002600 67 171 0.0 3.0 0.00 0.01 0.01 84 1010.5
20260507002103 68 11 0.0 1.0 0.00 0.01 0.01 83 1010.4
20260507001601 68 54 0.0 3.0 0.00 0.01 0.01 82 1010.3
20260507001100 68 54 1.0 3.0 0.00 0.01 0.01 82 1010.2
20260507000746 68 116 0.0 1.0 0.00 0.01 0.01 81 1010.4
20260507000739 68 100 0.0 1.0 0.00 0.01 0.01 81 1010.3
20260507000714 68 117 0.0 1.0 0.00 0.01 0.01 81 1010.3
20260506235101 69 54 0.0 1.0 0.00 0.01 0.01 80 1010.3
20260506234600 69 143 0.0 1.0 0.00 0.01 0.01 80 1010.3
20260506234100 69 143 0.0 1.0 0.00 0.01 0.01 79 1010.2
20260506233602 69 261 0.0 3.0 0.00 0.01 0.01 79 1010.0
20260506233101 69 54 1.0 3.0 0.00 0.01 0.01 77 1010.0
20260506232600 69 89 1.0 3.0 0.00 0.01 0.01 77 1009.9
20260506232103 69 188 1.0 3.0 0.00 0.01 0.01 76 1010.0
20260506231600 69 100 1.0 4.0 0.00 0.01 0.01 77 1009.8
20260506231102 70 188 2.0 5.0 0.00 0.01 0.01 75 1009.7
20260506230602 70 143 1.0 5.0 0.00 0.01 0.01 75 1009.7
20260506230400 70 171 1.0 4.0 0.00 0.01 0.01 75 1009.5
20260506225559 70 198 2.0 7.0 0.00 0.01 0.01 75 1009.4
20260506225057 70 143 2.0 7.0 0.00 0.01 0.01 75 1009.5
20260506224557 70 162 3.0 8.0 0.00 0.01 0.01 75 1009.5
20260506224054 70 143 3.0 15.0 0.00 0.01 0.01 75 1009.5
20260506223554 70 166 3.0 15.0 0.00 0.01 0.01 74 1009.5
20260506223056 70 208 2.0 9.0 0.00 0.01 0.01 75 1009.5
20260506222557 71 162 2.0 8.0 0.00 0.01 0.01 74 1009.5
20260506222358 71 110 2.0 8.0 0.00 0.01 0.01 73 1009.4
20260506221556 71 143 2.0 7.0 0.00 0.01 0.01 74 1009.3
20260506221054 71 125 2.0 7.0 0.00 0.01 0.01 74 1009.4
20260506220555 71 171 2.0 5.0 0.00 0.01 0.01 73 1009.5
20260506220054 71 162 1.0 5.0 0.00 0.01 0.01 74 1009.4
20260506215852 71 143 2.0 8.0 0.00 0.01 0.01 74 1009.3
20260506215056 71 125 2.0 8.0 0.00 0.01 0.01 73 1009.4
20260506214851 71 203 2.0 8.0 0.00 0.01 0.01 73 1009.4
20260506214054 71 155 2.0 8.0 0.00 0.01 0.01 72 1009.4
20260506213547 71 107 2.0 7.0 0.00 0.01 0.01 72 1009.4
20260506213123 72 160 3.0 11.0 0.00 0.01 0.01 72 1009.2
20260506213109 71 160 2.0 8.0 0.00 0.01 0.01 72 1009.4
20260506212035 72 155 3.0 11.0 0.00 0.01 0.01 71 1009.3
20260506211535 73 125 3.0 11.0 0.00 0.01 0.01 70 1009.2
20260506211337 73 279 4.0 9.0 0.00 0.01 0.01 70 1009.1
20260506210536 72 176 3.0 11.0 0.00 0.01 0.01 72 1009.1
20260506210331 72 166 2.0 11.0 0.00 0.01 0.01 71 1009.1
20260506205533 72 171 2.0 11.0 0.00 0.01 0.01 72 1008.9
20260506205033 71 117 2.0 8.0 0.00 0.01 0.01 72 1008.8
20260506204830 72 172 2.0 8.0 0.00 0.01 0.01 71 1009.0
20260506204032 71 100 3.0 11.0 0.00 0.01 0.01 72 1009.0
20260506203531 71 105 3.0 11.0 0.00 0.01 0.01 71 1009.0
20260506203029 71 186 2.0 9.0 0.00 0.01 0.01 72 1008.8
20260506202529 71 120 2.0 7.0 0.00 0.01 0.01 72 1008.8
20260506202030 71 168 2.0 7.0 0.00 0.01 0.01 72 1009.2
20260506201532 71 136 3.0 8.0 0.00 0.01 0.01 72 1009.1
20260506201031 71 171 3.0 8.0 0.00 0.01 0.01 72 1009.0
20260506200530 71 162 2.0 8.0 0.00 0.01 0.01 72 1009.2
20260506200031 71 108 2.0 8.0 0.00 0.01 0.01 72 1009.1
20260506195530 71 191 3.0 12.0 0.00 0.01 0.01 73 1009.1
20260506195031 71 188 3.0 12.0 0.00 0.01 0.01 72 1009.1
20260506194530 71 123 3.0 9.0 0.00 0.01 0.01 73 1009.1
20260506194029 70 136 3.0 15.0 0.00 0.01 0.01 73 1009.2
20260506193831 70 143 4.0 15.0 0.00 0.01 0.01 72 1009.2
20260506193031 70 167 4.0 14.0 0.00 0.01 0.01 72 1009.2
20260506192833 71 149 4.0 19.0 0.00 0.01 0.01 70 1009.3
20260506192032 72 176 3.0 19.0 0.00 0.01 0.01 71 1009.3
20260506191530 72 158 3.0 11.0 0.00 0.01 0.01 70 1009.2
20260506191031 72 133 3.0 9.0 0.00 0.01 0.01 71 1009.3
20260506190530 71 54 2.0 8.0 0.00 0.01 0.01 73 1009.3
20260506190333 71 155 2.0 9.0 0.00 0.01 0.01 75 1009.3
20260506185531 70 151 3.0 12.0 0.00 0.01 0.01 75 1009.3
20260506185030 69 188 3.0 12.0 0.00 0.01 0.01 74 1009.5
20260506184530 69 160 3.0 15.0 0.00 0.01 0.01 76 1009.5
20260506184330 68 143 3.0 15.0 0.00 0.01 0.01 75 1009.5
20260506183823 68 143 3.0 11.0 0.00 0.01 0.01 77 1009.7
20260506183020 68 181 4.0 11.0 0.00 0.01 0.01 76 1009.8
20260506182514 68 162 4.0 14.0 0.00 0.01 0.01 77 1009.9
20260506182009 68 143 3.0 14.0 0.00 0.01 0.01 75 1010.0
20260506181804 68 143 3.0 14.0 0.00 0.01 0.01 77 1009.8
20260506181004 68 143 4.0 14.0 0.00 0.01 0.01 76 1009.9
20260506180503 68 176 3.0 9.0 0.00 0.01 0.01 76 1010.0
20260506180300 68 100 3.0 16.0 0.00 0.01 0.01 77 1010.1
20260506175502 67 220 4.0 16.0 0.00 0.01 0.01 78 1010.1
20260506175002 67 162 4.0 15.0 0.00 0.01 0.01 78 1010.1
20260506174505 67 117 3.0 12.0 0.00 0.01 0.01 79 1010.2
20260506174003 67 155 3.0 16.0 0.00 0.01 0.01 80 1010.2
20260506173502 66 143 4.0 16.0 0.00 0.01 0.01 80 1010.1
20260506173003 66 157 4.0 12.0 0.00 0.01 0.01 80 1010.3
20260506172502 65 159 4.0 12.0 0.00 0.01 0.01 81 1010.2
20260506172003 65 139 3.0 12.0 0.00 0.01 0.01 81 1010.2
20260506171503 65 198 3.0 14.0 0.00 0.01 0.01 83 1010.2
20260506171002 65 152 4.0 14.0 0.00 0.01 0.01 83 1010.3
20260506170502 65 143 4.0 12.0 0.00 0.01 0.01 83 1010.4
20260506170300 64 169 5.0 18.0 0.00 0.01 0.01 84 1010.5
20260506165502 64 138 5.0 24.0 0.00 0.01 0.01 85 1010.6
20260506165001 64 167 4.0 24.0 0.00 0.01 0.01 84 1010.4
20260506164502 64 169 3.0 15.0 0.00 0.01 0.01 86 1010.4
20260506164001 64 218 3.0 12.0 0.00 0.01 0.01 88 1010.4
20260506163502 64 100 4.0 14.0 0.00 0.01 0.01 88 1010.4
20260506163002 63 196 4.0 15.0 0.00 0.01 0.01 88 1010.6
20260506162503 63 123 3.0 15.0 0.00 0.01 0.01 89 1010.5
20260506162004 63 168 3.0 12.0 0.00 0.01 0.01 90 1010.5
20260506161503 63 129 2.0 12.0 0.00 0.01 0.01 90 1010.5
20260506161002 63 28 3.0 14.0 0.00 0.01 0.01 91 1010.5
20260506160502 62 158 3.0 14.0 0.00 0.01 0.01 90 1010.5
20260506160001 62 187 2.0 9.0 0.00 0.01 0.01 91 1010.6
20260506155501 62 135 2.0 9.0 0.01 0.01 0.01 92 1010.7
20260506155002 62 168 2.0 9.0 0.01 0.01 0.01 92 1010.7
20260506154501 62 234 2.0 7.0 0.01 0.01 0.01 92 1010.6
20260506154001 62 143 1.0 9.0 0.01 0.01 0.01 93 1010.5
20260506153753 62 107 2.0 9.0 0.01 0.01 0.01 93 1010.8
20260506153002 61 94 2.0 9.0 0.01 0.01 0.01 93 1010.9
20260506152459 61 181 2.0 9.0 0.01 0.01 0.01 93 1011.0
20260506151952 61 234 2.0 11.0 0.01 0.01 0.01 93 1010.9
20260506151446 60 92 2.0 11.0 0.01 0.01 0.01 92 1010.9
20260506150944 61 134 2.0 8.0 0.01 0.01 0.01 92 1011.1
20260506150746 61 143 1.0 8.0 0.01 0.01 0.01 93 1011.2
20260506145942 61 82 1.0 5.0 0.01 0.01 0.01 93 1011.0
20260506145443 61 54 2.0 7.0 0.00 0.00 0.00 92 1011.4
20260506144942 61 110 2.0 8.0 0.00 0.00 0.00 92 1011.5
20260506144443 61 178 2.0 9.0 0.00 0.00 0.00 92 1011.6
20260506143940 61 189 2.0 9.0 0.00 0.00 0.00 92 1011.7
20260506143443 60 265 1.0 5.0 0.00 0.00 0.00 92 1011.6
20260506142941 61 77 1.0 4.0 0.00 0.00 0.00 93 1011.5
20260506142439 61 54 1.0 4.0 0.00 0.00 0.00 93 1011.5
20260506141935 61 205 1.0 4.0 0.00 0.00 0.00 92 1011.5
20260506141437 60 153 1.0 4.0 0.00 0.00 0.00 92 1011.6
20260506140937 61 82 1.0 4.0 0.00 0.00 0.00 92 1011.6
20260506140436 61 143 1.0 4.0 0.00 0.00 0.00 92 1011.5
20260506135938 61 65 1.0 5.0 0.00 0.00 0.00 92 1011.4
20260506135431 61 162 1.0 5.0 0.00 0.00 0.00 92 1011.4
20260506134932 61 11 2.0 5.0 0.00 0.00 0.00 91 1011.5
20260506134430 61 92 2.0 5.0 0.00 0.00 0.00 91 1011.7
20260506133931 61 116 2.0 8.0 0.00 0.00 0.00 91 1011.8
20260506133432 61 54 2.0 8.0 0.00 0.00 0.00 90 1011.8
20260506133228 61 89 1.0 5.0 0.00 0.00 0.00 90 1011.9
20260506132430 61 162 1.0 5.0 0.00 0.00 0.00 90 1012.0
20260506131931 62 125 1.0 4.0 0.00 0.00 0.00 90 1011.9
20260506131429 62 116 1.0 4.0 0.00 0.00 0.00 89 1012.2
20260506130932 62 143 1.0 4.0 0.00 0.00 0.00 90 1012.1
20260506130431 62 201 1.0 4.0 0.00 0.00 0.00 90 1012.0
20260506125930 62 11 1.0 3.0 0.00 0.00 0.00 90 1011.7
20260506125430 62 110 1.0 4.0 0.00 0.00 0.00 89 1011.6
20260506125227 61 187 0.0 4.0 0.00 0.00 0.00 89 1011.5
20260506124431 62 73 1.0 3.0 0.00 0.00 0.00 90 1011.2
20260506123930 62 100 1.0 3.0 0.00 0.00 0.00 89 1011.2
20260506123429 62 28 1.0 3.0 0.00 0.00 0.00 88 1011.3
20260506122929 62 73 0.0 3.0 0.00 0.00 0.00 87 1011.4
20260506122430 62 100 0.0 1.0 0.00 0.00 0.00 86 1011.5
20260506121929 62 54 0.0 3.0 0.00 0.00 0.00 84 1011.5
20260506121728 63 54 1.0 3.0 0.00 0.00 0.00 82 1011.6
20260506120930 64 100 1.0 4.0 0.00 0.00 0.00 80 1011.8
20260506120429 64 54 1.0 4.0 0.00 0.00 0.00 78 1011.9
20260506115930 64 113 2.0 8.0 0.00 0.00 0.00 77 1011.9
20260506115432 64 279 2.0 8.0 0.00 0.00 0.00 76 1011.8
20260506114931 65 279 2.0 9.0 0.00 0.00 0.00 74 1011.8
20260506114431 65 143 2.0 9.0 0.00 0.00 0.00 73 1011.8
20260506113929 65 158 2.0 9.0 0.00 0.00 0.00 72 1011.7
20260506113430 66 171 2.0 9.0 0.00 0.00 0.00 71 1011.6
20260506113234 66 160 2.0 8.0 0.00 0.00 0.00 70 1011.6
20260506112429 66 100 2.0 15.0 0.00 0.00 0.00 70 1011.4
20260506111930 66 162 3.0 15.0 0.00 0.00 0.00 69 1011.3
20260506111730 66 174 2.0 11.0 0.00 0.00 0.00 70 1011.2
20260506110929 66 113 2.0 5.0 0.00 0.00 0.00 69 1011.1
20260506110729 66 153 2.0 5.0 0.00 0.00 0.00 69 1011.0
20260506105930 66 135 2.0 12.0 0.00 0.00 0.00 70 1011.1
20260506105431 66 326 2.0 12.0 0.00 0.00 0.00 69 1011.1
20260506104928 66 113 2.0 9.0 0.00 0.00 0.00 69 1011.1
20260506104430 66 116 2.0 7.0 0.00 0.00 0.00 70 1010.9
20260506104226 66 171 2.0 5.0 0.00 0.00 0.00 70 1010.9
20260506103429 65 168 2.0 5.0 0.00 0.00 0.00 69 1010.8
20260506102931 66 171 2.0 7.0 0.00 0.00 0.00 70 1010.9
20260506102429 66 82 2.0 11.0 0.00 0.00 0.00 69 1010.9
20260506101930 66 143 2.0 11.0 0.00 0.00 0.00 69 1010.8
20260506101430 66 82 2.0 15.0 0.00 0.00 0.00 70 1010.8
20260506100931 66 205 2.0 15.0 0.00 0.00 0.00 69 1010.8
20260506100429 66 188 2.0 15.0 0.00 0.00 0.00 68 1010.9
20260506095929 67 89 2.0 9.0 0.00 0.00 0.00 67 1010.7
20260506095428 67 136 1.0 5.0 0.00 0.00 0.00 66 1010.8
20260506094930 67 171 2.0 8.0 0.00 0.00 0.00 66 1010.9
20260506094427 67 100 2.0 11.0 0.00 0.00 0.00 66 1010.9
20260506093921 67 153 2.0 11.0 0.00 0.00 0.00 66 1010.9
20260506093414 67 158 2.0 8.0 0.00 0.00 0.00 66 1011.0
20260506093008 67 220 2.0 9.0 0.00 0.00 0.00 66 1010.9
20260506092948 67 127 2.0 9.0 0.00 0.00 0.00 66 1011.0
20260506091904 67 125 2.0 8.0 0.00 0.00 0.00 65 1010.9
20260506091405 67 110 2.0 5.0 0.00 0.00 0.00 65 1010.9
20260506090903 67 153 1.0 8.0 0.00 0.00 0.00 65 1010.9
20260506090403 67 129 1.0 8.0 0.00 0.00 0.00 65 1010.9
20260506090152 67 289 2.0 11.0 0.00 0.00 0.00 65 1011.0
20260506085402 67 54 2.0 11.0 0.00 0.00 0.00 65 1011.1
20260506084902 67 215 2.0 11.0 0.00 0.00 0.00 65 1011.1
20260506084401 67 182 2.0 5.0 0.00 0.00 0.00 64 1011.2
20260506083901 67 188 2.0 9.0 0.00 0.00 0.00 64 1011.1
20260506083402 67 125 2.0 9.0 0.00 0.00 0.00 64 1011.2
20260506082901 67 175 2.0 9.0 0.00 0.00 0.00 64 1011.0
20260506082401 68 166 2.0 8.0 0.00 0.00 0.00 64 1011.0
20260506081904 68 246 2.0 8.0 0.00 0.00 0.00 63 1011.1
20260506081403 68 134 2.0 7.0 0.00 0.00 0.00 64 1011.1
20260506080902 68 135 2.0 5.0 0.00 0.00 0.00 63 1011.1
20260506080657 68 136 2.0 5.0 0.00 0.00 0.00 63 1011.1
20260506073402 69 171 1.0 5.0 0.00 0.00 0.00 60 1010.9
20260506072901 69 129 1.0 5.0 0.00 0.00 0.00 59 1010.9
20260506072401 70 100 1.0 5.0 0.00 0.00 0.00 58 1011.0
20260506071900 70 117 2.0 11.0 0.00 0.00 0.00 58 1011.0
20260506071402 70 107 2.0 11.0 0.00 0.00 0.00 57 1011.0
20260506070903 70 100 2.0 12.0 0.00 0.00 0.00 57 1011.1
20260506070401 70 116 3.0 12.0 0.00 0.00 0.00 57 1011.1
20260506062437 71 171 3.0 12.0 0.00 0.00 0.00 55 1011.5
20260506061401 71 136 3.0 11.0 0.00 0.00 0.00 54 1011.4
20260506060902 72 154 3.0 8.0 0.00 0.00 0.00 54 1011.5
20260506060402 72 153 3.0 8.0 0.00 0.00 0.00 53 1011.5
20260506050849 72 117 2.0 9.0 0.00 0.00 0.00 52 1011.6
20260506050642 72 47 2.0 8.0 0.00 0.00 0.00 52 1011.7
20260506044848 72 180 2.0 11.0 0.00 0.00 0.00 51 1011.7
20260506044343 72 148 2.0 11.0 0.00 0.00 0.00 51 1011.7
20260506043844 73 100 2.0 11.0 0.00 0.00 0.00 51 1011.6
20260506043344 73 167 2.0 11.0 0.00 0.00 0.00 51 1011.6
20260506042842 73 125 2.0 11.0 0.00 0.00 0.00 51 1011.7
20260506042633 73 25 3.0 12.0 0.00 0.00 0.00 50 1011.8
20260506041843 73 120 3.0 12.0 0.00 0.00 0.00 50 1011.8
20260506041342 73 82 2.0 11.0 0.00 0.00 0.00 50 1011.7
20260506041133 73 120 3.0 12.0 0.00 0.00 0.00 50 1011.6
20260506040338 73 152 3.0 12.0 0.00 0.00 0.00 50 1011.6
20260506035839 73 152 2.0 12.0 0.00 0.00 0.00 50 1011.7
20260506035339 73 136 2.0 12.0 0.00 0.00 0.00 50 1011.7
20260506034841 73 54 3.0 8.0 0.00 0.00 0.00 49 1011.5
20260506034337 73 147 2.0 12.0 0.00 0.00 0.00 49 1011.6
20260506033837 73 178 2.0 12.0 0.00 0.00 0.00 49 1011.5
20260506033629 73 100 2.0 8.0 0.00 0.00 0.00 48 1011.5
20260506032836 73 164 2.0 7.0 0.00 0.00 0.00 48 1011.6
20260506032336 73 129 2.0 12.0 0.00 0.00 0.00 47 1011.6
20260506032135 73 296 2.0 12.0 0.00 0.00 0.00 47 1011.7
20260506031336 73 82 2.0 12.0 0.00 0.00 0.00 46 1011.6
20260506030836 73 162 2.0 12.0 0.00 0.00 0.00 46 1011.6
20260506030338 74 143 2.0 8.0 0.00 0.00 0.00 45 1011.6
20260506025831 74 165 2.0 8.0 0.00 0.00 0.00 44 1011.7
20260506025332 74 135 2.0 14.0 0.00 0.00 0.00 44 1011.5
20260506024831 74 117 2.0 14.0 0.00 0.00 0.00 44 1011.5
20260506024330 74 100 2.0 15.0 0.00 0.00 0.00 43 1011.5
20260506023923 74 112 2.0 12.0 0.00 0.00 0.00 42 1011.5
20260506023905 74 54 3.0 15.0 0.00 0.00 0.00 43 1011.5
20260506022831 74 305 2.0 9.0 0.00 0.00 0.00 42 1011.6
20260506022331 75 149 2.0 11.0 0.00 0.00 0.00 42 1011.6
20260506021831 75 125 3.0 11.0 0.00 0.00 0.00 41 1011.7
20260506021331 75 171 3.0 8.0 0.00 0.00 0.00 41 1011.7
20260506020833 75 168 2.0 7.0 0.00 0.00 0.00 40 1011.7
20260506020332 75 119 3.0 12.0 0.00 0.00 0.00 40 1011.7
20260506015831 75 127 3.0 12.0 0.00 0.00 0.00 39 1011.7
20260506015622 75 188 3.0 12.0 0.00 0.00 0.00 39 1011.7